{"data":{"norad_id":51768,"intl_designator":"2022-017A","name":"STARLINK-3622","alt_names":[],"object_type":"PAYLOAD","status":"ACTIVE","operator":null,"country":"US","launch_date":"2022-02-25","launch_site_code":"AFWTR","launch_vehicle":null,"mission":null,"orbit_class":"UNKNOWN","rcs_meters":null,"size_class":null,"mass_kg":null,"dimensions":null,"purposes":["comms"],"wikipedia_slug":null,"has_3d_model":false,"image_url":null,"decayed_at":null,"tle_current":{"epoch":"2026-05-24T20:42:57.367008Z","epoch_age_seconds":80841,"freshness":"FRESH","line1":"1 51768U 22017A   26144.86316397  .00000408  00000+0  43717-4 0  9996","line2":"2 51768  53.2166 357.1651 0001468  94.4730 265.6430 15.08842706235542","mean_motion":15.08842706,"eccentricity":0.0001468,"inclination_deg":53.2166,"raan_deg":357.1651,"arg_perigee_deg":94.473,"mean_anomaly_deg":265.643,"bstar":4.3717e-5,"rev_number":23554,"period_min":95.437383517431,"perigee_km":538.71957419012,"apogee_km":540.75066144391,"semimajor_km":6917.872117817,"source":"CELESTRAK","updated_at":"2026-05-25T13:38:16.949433Z"}}}